SCP
0 0 1 1 1 1 1 1 1 1 1 1 1 1 1 1 0 0 0 1 1 1 0 0 0 0 0 0 0 0 0 0 0 0 0 0 0 0 0 0 0 0 0
1 1 1 1 1 1 1 1 1 1 1 1 1 1 1 0 0 0 0 1 0 0 0 0 0 0 0 0 0 0 0 0 0 0 0 0 0 0 0 0 0 0 0
1 1 1 1 1 1 1 1 1 1 1 1 1 1 1 0 0 0 0 0 0 0 0 0 0 0 0 0 0 0 0 0 0 0 0 0 0 0 0 0 0 0 0
1 1 1 1 1 1 1 1 1 1 1 1 1 1 1 0 0 0 0 0 0 0 0 0 0 0 0 0 0 0 0 0 0 0 0 0 0 0 0 0 0 0 0
1 1 1 1 1 1 1 1 1 1 1 1 1 1 1 0 0 0 0 0 0 0 0 0 0 0 0 0 0 0 0 0 0 0 0 0 0 0 0 0 0 0 0
1 1 1 1 1 1 1 1 1 1 1 1 1 1 1 1 1 0 0 0 0 0 0 0 0 0 0 0 0 0 0 0 0 0 0 0 0 0 0 0 0 0 0
1 1 1 1 1 1 1 1 1 1 1 1 1 1 1 1 1 1 0 0 0 0 0 0 0 0 0 0 0 0 0 0 0 0 0 0 0 0 0 0 0 0 0
1 1 1 1 1 1 1 1 1 1 1 1 1 1 1 1 1 1 1 0 0 0 0 0 0 0 0 0 0 0 0 0 0 0 0 0 0 0 0 0 0 0 0
2 2 1 1 1 1 1 1 1 1 1 1 1 1 1 1 1 1 1 1 0 0 0 0 0 0 0 0 0 0 0 0 0 0 0 0 0 0 0 0 0 0 0
2 2 2 2 1 1 1 1 1 1 1 1 1 1 1 1 1 1 1 1 0 0 0 0 0 0 0 0 0 0 0 0 0 0 0 0 0 0 0 0 0 0 0
3 3 2 2 2 1 1 1 1 1 1 1 1 1 1 1 1 1 1 1 1 0 0 0 0 0 0 0 0 0 0 0 0 0 0 0 0 0 0 0 0 0 0
3 3 2 2 2 1 1 1 1 1 1 1 1 1 1 1 1 1 1 1 1 0 0 0 0 0 0 0 0 0 0 0 0 0 0 0 0 0 0 0 0 0 0
2 2 2 2 1 1 1 1 1 1 1 1 1 1 1 1 1 1 1 1 1 1 1 1 1 0 0 0 0 0 0 0 0 0 0 0 0 0 0 0 0 0 0
2 2 2 2 1 1 1 1 1 1 1 1 1 1 1 1 1 1 1 1 1 1 1 1 0 0 0 0 0 0 0 0 0 0 0 0 0 0 0 0 0 0 0
2 2 2 2 1 1 1 1 1 1 1 1 1 1 1 1 1 1 1 1 1 1 1 0 0 0 0 0 0 0 0 0 0 0 0 0 0 0 0 0 0 0 0
2 2 2 2 1 1 1 1 1 1 1 1 1 1 1 1 1 0 1 1 0 0 0 0 0 0 0 0 0 0 0 0 0 0 0 0 0 0 0 0 0 0 0
2 2 2 1 1 1 1 1 1 1 1 1 1 1 1 1 1 0 0 0 0 0 0 0 0 0 0 0 0 0 0 0 0 0 0 0 0 0 0 0 0 0 0
2 2 2 1 1 1 1 1 2 1 1 1 1 1 1 1 0 0 0 0 0 0 0 0 0 0 0 0 0 0 0 0 0 0 0 0 0 0 0 0 0 0 0
2 2 2 2 2 2 2 2 2 2 1 1 1 1 1 1 0 0 0 0 0 0 0 0 0 0 0 0 0 0 0 0 0 0 0 0 0 0 0 0 0 0 0
2 2 2 2 2 2 3 3 2 2 1 1 1 1 1 1 1 0 0 0 0 0 0 0 0 0 0 0 0 0 0 0 0 0 0 0 0 0 0 0 0 0 0
3 3 2 3 3 3 3 3 2 2 2 1 1 1 1 1 1 1 0 0 0 0 0 0 0 0 0 0 0 0 0 0 0 0 0 0 0 0 0 1 1 1 0
3 3 3 3 3 3 3 3 2 2 2 1 1 1 1 1 1 1 1 0 0 0 0 0 0 0 0 0 0 0 0 0 0 0 0 0 0 0 0 1 1 1 1
4 4 4 4 3 3 3 2 2 2 1 1 1 1 1 1 1 1 1 0 0 1 1 1 0 0 0 0 0 0 0 0 0 0 0 0 0 0 0 1 1 1 1
4 4 5 5 4 3 3 3 2 2 1 1 1 1 1 1 1 1 1 1 1 1 1 1 0 0 0 0 0 0 0 0 0 0 0 0 0 0 0 0 0 0 1
5 5 6 5 4 3 3 2 2 1 1 1 1 1 1 1 1 1 1 1 1 1 1 0 0 0 0 0 0 0 0 0 0 0 0 0 0 0 0 0 0 0 0
6 6 6 6 4 3 3 2 2 2 1 1 1 1 1 1 1 1 1 1 1 1 1 0 0 0 0 0 0 0 0 0 0 0 0 0 0 0 0 0 0 0 0
Wind_Speed
6 7 15 15 15 16 16 17 17 17 17 18 18 18 17 17 17 16 16 16 16 16 16 16 16 16 15 15 16 16 16 16 15 16 16 16 16 16 16 16 15 12 16
10 10 16 16 16 16 16 16 16 16 17 17 17 17 17 17 16 16 16 16 16 16 16 16 16 16 16 16 16 16 16 16 16 16 16 15 15 15 15 16 14 11 16
13 10 14 16 16 16 16 16 16 16 16 16 16 16 16 16 16 16 16 16 16 16 16 16 16 16 16 16 15 15 15 16 16 16 14 10 11 14 14 15 15 15 15
13 9 11 17 16 16 16 15 15 16 16 16 16 16 16 16 16 16 16 16 15 16 16 16 16 16 16 15 15 15 15 15 15 14 8 8 9 13 14 15 15 14 15
11 8 12 18 17 16 16 15 15 15 15 15 15 15 15 15 15 16 16 15 15 15 15 15 16 15 15 14 14 14 14 14 15 11 8 7 7 13 14 14 14 14 14
10 8 12 18 17 16 15 15 14 14 15 15 14 14 15 15 15 15 15 15 15 15 15 15 15 14 14 13 13 13 14 14 12 8 7 7 7 12 14 14 14 14 14
10 8 11 18 17 16 16 15 14 14 14 14 14 14 14 15 15 15 15 14 14 14 14 14 14 13 13 12 12 13 13 14 9 8 7 6 7 11 13 13 13 13 13
11 8 10 17 17 16 16 15 14 14 14 14 14 14 14 14 14 14 14 14 14 14 14 13 13 12 11 11 12 13 13 12 9 8 7 6 9 11 13 13 13 13 13
9 8 7 9 12 16 16 15 14 14 14 13 13 13 13 13 13 13 13 13 13 13 13 12 12 11 10 10 11 12 12 12 8 6 7 5 10 12 12 12 12 12 12
7 7 6 6 6 7 9 14 14 14 13 13 13 13 13 13 12 12 11 11 12 12 11 11 11 10 9 9 10 11 12 10 7 6 5 6 11 11 12 12 12 11 11
9 6 6 7 6 6 6 10 11 13 13 12 10 13 10 5 5 6 9 11 11 10 10 10 10 10 9 9 10 11 10 4 6 5 4 8 10 11 11 11 11 11 10
13 10 7 7 7 6 6 5 4 4 5 5 4 5 4 4 3 5 7 10 10 9 9 9 10 9 7 4 7 9 4 6 4 4 4 9 9 10 10 10 10 10 10
13 12 9 7 7 6 4 4 3 3 3 4 5 5 4 4 3 3 2 4 4 5 4 5 5 4 4 3 4 4 5 4 3 3 4 9 8 10 10 10 9 9 9
13 12 10 9 7 6 5 4 3 3 3 3 4 5 4 3 3 2 2 3 3 2 3 3 3 4 4 4 5 6 6 4 3 2 3 7 7 8 9 9 8 9 8
13 12 11 10 9 7 5 5 5 4 4 4 4 4 5 4 3 3 2 2 3 2 3 3 3 3 3 4 4 5 5 5 4 3 2 6 7 7 8 8 8 8 8
14 13 11 11 9 7 6 5 5 4 4 4 4 5 5 4 3 3 3 2 2 2 2 3 3 3 3 3 4 4 4 4 4 4 2 3 6 6 6 7 7 7 7
14 13 12 11 9 8 7 6 5 4 4 4 4 5 5 5 4 4 3 2 2 2 3 3 3 3 3 3 3 3 3 4 4 4 3 2 2 5 5 6 6 6 7
11 12 12 12 11 9 7 6 4 4 4 4 4 4 6 6 5 4 3 3 3 3 3 3 3 3 2 2 2 2 2 3 3 3 2 2 1 2 3 5 5 5 6
12 12 12 10 11 10 8 6 5 4 4 4 4 4 5 6 6 4 3 3 3 3 2 3 2 2 2 2 2 2 1 1 2 2 2 2 2 2 1 2 4 5 6
11 11 11 10 10 9 7 5 4 4 4 3 4 5 6 6 6 5 3 4 4 3 3 2 3 2 2 2 3 2 2 1 1 1 2 2 2 3 2 2 2 3 5
12 12 13 11 10 9 7 7 6 6 5 4 5 6 7 7 7 6 4 4 4 4 4 4 3 3 2 2 3 2 2 2 0 1 1 2 3 3 3 3 2 2 2
13 13 12 12 11 10 8 7 5 5 4 4 4 5 7 7 7 7 6 5 5 4 4 4 4 3 2 2 3 3 1 2 1 1 1 3 3 3 3 4 3 3 2
14 14 13 13 11 10 8 5 4 3 2 3 4 5 6 7 7 6 7 6 6 5 5 5 5 5 3 1 1 3 3 3 1 1 1 2 2 2 3 3 4 4 4
13 12 11 11 10 9 9 9 9 7 6 7 5 5 5 6 7 7 7 7 6 5 5 5 5 4 5 3 1 1 2 3 3 0 1 1 2 3 3 3 4 4 4
11 11 10 10 10 10 10 11 11 8 6 4 4 6 6 5 6 7 7 7 7 5 6 5 5 4 4 4 3 2 2 1 2 2 1 1 1 1 2 3 3 3 4
9 9 10 10 10 11 12 11 11 10 8 7 7 7 6 4 4 6 7 6 6 6 6 6 5 6 4 4 3 3 3 3 3 3 2 2 1 1 1 2 3 3 3
Wind_Direction
155 158 144 135 128 122 118 116 115 116 116 116 117 118 118 117 115 114 113 112 111 110 109 109 110 110 111 111 112 113 112 111 110 110 109 108 108 107 107 106 105 104 107
146 152 145 138 132 126 122 119 117 117 118 119 119 119 119 119 118 116 114 113 112 111 110 110 110 110 109 109 112 113 115 115 113 111 109 108 107 108 109 109 107 109 109
142 147 144 141 136 129 125 122 121 121 121 121 122 121 121 121 120 118 116 115 113 113 112 111 111 110 109 110 112 114 116 115 112 109 106 104 108 110 111 111 111 110 109
142 142 144 144 139 134 130 127 126 125 124 124 123 123 123 122 121 119 117 115 114 114 113 113 113 113 112 113 113 113 114 113 111 108 99 102 108 112 111 111 111 111 110
140 141 152 146 143 138 134 132 131 129 127 126 127 125 125 125 122 120 118 117 116 116 116 115 115 115 114 114 115 114 115 113 110 102 94 93 101 114 113 112 111 110 110
140 144 155 149 146 142 139 136 135 132 130 128 128 128 128 128 126 123 121 120 119 117 116 117 117 116 116 115 116 118 118 113 105 99 97 101 107 116 115 114 113 112 111
143 148 154 151 149 147 144 141 139 136 134 131 130 130 129 129 129 127 124 122 121 119 118 118 116 116 116 116 118 119 117 115 107 102 99 103 111 115 116 115 114 114 112
146 147 152 154 153 151 148 146 143 140 137 134 132 131 129 130 130 127 126 124 123 121 120 119 117 115 115 115 119 122 121 121 114 109 105 106 118 117 117 118 118 115 115
145 143 147 152 155 155 152 151 148 145 142 139 136 134 133 131 129 129 128 126 125 123 122 121 118 115 117 119 123 128 126 122 114 114 116 113 121 120 120 121 120 118 117
144 144 143 142 144 148 152 155 153 150 147 144 142 140 138 136 134 132 128 128 128 127 127 125 121 116 119 124 125 130 127 118 114 112 113 123 125 125 124 124 123 121 118
157 152 146 144 141 139 146 161 156 155 154 149 147 147 136 113 114 124 134 134 132 131 129 126 122 116 115 122 126 129 121 112 115 113 116 129 130 130 128 128 127 126 123
170 165 156 151 147 146 157 148 142 143 143 132 126 123 108 106 118 126 141 137 135 132 129 126 121 113 103 105 120 116 111 117 116 121 131 136 135 134 132 131 130 130 127
171 169 164 156 152 152 146 140 132 123 124 123 122 118 116 108 109 102 105 116 112 113 97 104 100 97 106 111 111 116 122 121 121 127 140 143 142 140 138 138 137 136 135
172 174 166 162 157 155 146 145 137 133 134 134 132 131 127 121 114 112 106 100 91 91 96 90 95 102 108 118 127 130 131 129 125 119 144 148 148 148 146 145 146 145 144
175 174 170 168 167 161 150 155 153 149 150 146 143 144 142 139 138 129 121 113 112 110 111 106 105 109 109 116 131 138 142 142 137 133 143 157 155 154 155 156 157 156 157
179 175 172 174 170 164 162 162 159 158 155 152 158 157 153 147 147 143 136 129 126 125 120 118 119 118 111 114 127 135 140 142 142 142 140 163 168 166 168 168 169 169 170
180 174 174 174 170 169 167 169 163 162 160 165 167 163 164 160 158 153 150 150 146 129 120 109 101 99 110 110 111 122 130 138 145 147 146 147 170 181 181 183 184 184 185
175 174 176 180 176 174 172 168 159 163 168 170 167 169 173 170 162 156 160 165 150 133 125 119 112 105 106 116 114 115 123 133 147 154 155 163 168 183 198 202 198 199 201
176 173 176 178 176 177 172 167 163 162 171 172 169 173 176 171 167 162 167 162 148 136 135 143 119 121 131 131 124 103 106 133 147 166 174 185 186 187 199 223 217 214 214
174 173 176 177 175 172 166 162 159 163 172 173 178 181 177 174 170 164 166 161 152 143 145 138 124 98 109 130 114 85 55 57 116 178 204 202 205 208 208 221 225 228 227
176 178 179 179 176 172 174 177 178 182 178 181 189 185 182 178 173 170 173 162 164 163 162 149 126 114 105 113 93 66 30 33 57 228 220 221 228 222 209 213 213 215 236
181 182 180 183 181 181 185 182 177 166 174 185 189 184 181 180 177 180 174 172 171 160 155 157 141 130 122 130 126 113 58 352 331 260 220 223 232 228 222 218 211 210 217
184 185 186 185 184 183 176 157 143 125 126 169 188 187 187 185 184 178 177 174 173 168 174 176 160 150 149 145 152 145 151 206 277 324 272 234 224 223 228 220 217 215 213
186 182 180 180 180 180 174 175 173 179 185 193 186 184 180 183 183 180 177 177 174 173 174 180 171 161 149 156 147 108 133 149 151 232 317 282 235 226 227 224 221 218 214
175 173 173 175 178 180 182 188 183 187 186 173 165 174 180 182 186 183 180 179 178 179 179 175 168 168 162 160 161 150 127 95 120 148 222 292 296 249 229 222 224 223 215
167 169 169 176 184 184 188 189 189 186 179 172 180 185 184 182 185 186 182 183 183 181 181 179 174 173 175 164 163 161 160 162 176 165 183 223 251 286 270 233 226 225 218